N5LSN Weather Reports


Display with metric or nautical units.
time (UTC)temp
F
wind
direction
speed
MPH
gust
MPH
rain 1hr
in
rain 24hr
in
rain mn
in
humidity
%
barometer
mb
20260505003940 72 162 3.0 5.0 0.00 0.00 0.00 62 1008.8
20260505003437 73 143 3.0 5.0 0.00 0.00 0.00 62 1008.9
20260505002933 73 173 3.0 4.0 0.00 0.00 0.00 61 1008.8
20260505002429 73 155 3.0 4.0 0.00 0.00 0.00 61 1008.7
20260505001928 73 165 2.0 3.0 0.00 0.00 0.00 60 1009.0
20260505001425 74 194 2.0 5.0 0.00 0.00 0.00 59 1008.9
20260505000922 74 180 2.0 6.0 0.00 0.00 0.00 58 1008.9
20260505000420 74 190 2.0 8.0 0.00 0.00 0.00 58 1008.8
20260504235916 74 174 5.0 7.0 0.00 0.00 0.00 57 1009.0
20260504235408 75 205 5.0 8.0 0.00 0.00 0.00 56 1008.8
20260504234904 75 196 5.0 9.0 0.00 0.00 0.00 55 1009.0
20260504234402 75 204 4.0 6.0 0.00 0.00 0.00 56 1009.0
20260504233858 75 197 7.0 10.0 0.00 0.00 0.00 55 1009.0
20260504233354 75 198 7.0 11.0 0.00 0.00 0.00 54 1009.1
20260504232850 75 152 4.0 9.0 0.00 0.00 0.00 54 1009.1
20260504232348 76 157 9.0 12.0 0.00 0.00 0.00 53 1009.0
20260504231844 76 205 6.0 11.0 0.00 0.00 0.00 53 1009.4
20260504231341 76 201 5.0 9.0 0.00 0.00 0.00 54 1009.3
20260504230837 77 223 4.0 5.0 0.00 0.00 0.00 54 1009.3
20260504230335 76 214 3.0 7.0 0.00 0.00 0.00 54 1009.5
20260504225834 77 152 4.0 6.0 0.00 0.00 0.00 53 1009.5
20260504225330 77 197 4.0 7.0 0.00 0.00 0.00 53 1009.9
20260504224827 77 188 4.0 17.0 0.00 0.00 0.00 52 1009.6
20260504224324 78 197 5.0 11.0 0.00 0.00 0.00 52 1009.7
20260504223821 78 210 2.0 10.0 0.00 0.00 0.00 53 1009.8
20260504223316 78 192 4.0 11.0 0.00 0.00 0.00 51 1009.6
20260504222813 78 224 4.0 11.0 0.00 0.00 0.00 52 1009.6
20260504222310 78 180 3.0 8.0 0.00 0.00 0.00 52 1009.8
20260504221809 78 185 4.0 6.0 0.00 0.00 0.00 52 1009.7
20260504221305 78 203 4.0 10.0 0.00 0.00 0.00 52 1009.9
20260504220802 77 269 3.0 14.0 0.00 0.00 0.00 51 1009.9
20260504220258 77 206 5.0 17.0 0.00 0.00 0.00 51 1009.9
20260504215756 77 198 11.0 13.0 0.00 0.00 0.00 50 1009.9
20260504215251 78 216 5.0 18.0 0.00 0.00 0.00 52 1010.1
20260504214747 78 208 3.0 10.0 0.00 0.00 0.00 50 1010.2
20260504214244 79 254 3.0 5.0 0.00 0.00 0.00 49 1010.3
20260504213742 78 224 5.0 8.0 0.00 0.00 0.00 50 1010.1
20260504213238 78 252 3.0 14.0 0.00 0.00 0.00 49 1010.1
20260504212735 79 175 4.0 13.0 0.00 0.00 0.00 50 1010.3
20260504212232 79 240 3.0 7.0 0.00 0.00 0.00 47 1010.4
20260504211729 78 175 2.0 14.0 0.00 0.00 0.00 49 1010.2
20260504211225 78 196 9.0 11.0 0.00 0.00 0.00 48 1010.3
20260504210722 78 163 12.0 18.0 0.00 0.00 0.00 49 1010.5
20260504210214 78 201 5.0 17.0 0.00 0.00 0.00 48 1010.7
20260504205710 79 195 8.0 14.0 0.00 0.00 0.00 47 1010.7
20260504205207 78 202 10.0 14.0 0.00 0.00 0.00 48 1010.8
20260504204701 79 263 6.0 11.0 0.00 0.00 0.00 47 1010.8
20260504204159 79 213 9.0 15.0 0.00 0.00 0.00 48 1011.0
20260504203657 79 227 4.0 11.0 0.00 0.00 0.00 48 1010.9
20260504203154 78 195 6.0 15.0 0.00 0.00 0.00 49 1011.1
20260504202649 78 224 3.0 15.0 0.00 0.00 0.00 50 1011.2
20260504202146 78 190 5.0 18.0 0.00 0.00 0.00 49 1011.5
20260504201643 79 195 9.0 18.0 0.00 0.00 0.00 48 1011.4
20260504201141 79 219 5.0 13.0 0.00 0.00 0.00 49 1011.4
20260504200638 78 180 4.0 14.0 0.00 0.00 0.00 48 1011.6
20260504200134 79 245 4.0 14.0 0.00 0.00 0.00 48 1011.7
20260504195630 79 277 4.0 14.0 0.00 0.00 0.00 48 1011.8
20260504195127 79 214 4.0 9.0 0.00 0.00 0.00 48 1012.0
20260504194624 78 238 7.0 13.0 0.00 0.00 0.00 48 1012.1
20260504194120 78 250 3.0 16.0 0.00 0.00 0.00 50 1011.9
20260504193616 77 241 5.0 10.0 0.00 0.00 0.00 49 1012.2
20260504193114 77 231 5.0 18.0 0.00 0.00 0.00 49 1012.1
20260504192612 77 186 5.0 13.0 0.00 0.00 0.00 50 1012.1
20260504192110 77 221 5.0 17.0 0.00 0.00 0.00 50 1012.5
20260504191608 77 225 3.0 8.0 0.00 0.00 0.00 52 1012.3
20260504191103 78 212 13.0 18.0 0.00 0.00 0.00 49 1012.4
20260504190600 77 207 4.0 13.0 0.00 0.00 0.00 50 1012.5
20260504190056 77 205 8.0 16.0 0.00 0.00 0.00 49 1012.6
20260504185553 77 189 7.0 19.0 0.00 0.00 0.00 48 1012.5
20260504185044 76 207 8.0 11.0 0.00 0.00 0.00 50 1012.5
20260504184540 77 172 5.0 16.0 0.00 0.00 0.00 51 1012.6
20260504184035 77 199 9.0 22.0 0.00 0.00 0.00 48 1012.9
20260504183533 77 194 5.0 12.0 0.00 0.00 0.00 50 1012.9
20260504183031 77 302 5.0 12.0 0.00 0.00 0.00 52 1012.8
20260504182527 77 192 15.0 15.0 0.00 0.00 0.00 51 1012.9
20260504182025 77 208 9.0 10.0 0.00 0.00 0.00 52 1012.9
20260504181522 76 213 5.0 10.0 0.00 0.00 0.00 48 1013.1
20260504181020 77 246 6.0 14.0 0.00 0.00 0.00 48 1013.1
20260504180519 76 197 7.0 16.0 0.00 0.00 0.00 50 1013.1
20260504180017 77 198 4.0 11.0 0.00 0.00 0.00 52 1013.3
20260504175514 76 225 2.0 13.0 0.00 0.00 0.00 55 1013.4
20260504175011 76 199 9.0 18.0 0.00 0.00 0.00 53 1013.3
20260504174509 76 247 2.0 11.0 0.00 0.00 0.00 50 1013.5
20260504174005 76 261 3.0 12.0 0.00 0.00 0.00 50 1013.7
20260504173502 76 241 5.0 12.0 0.00 0.00 0.00 53 1013.6
20260504173000 76 202 7.0 13.0 0.00 0.00 0.00 54 1013.7
20260504172455 76 227 5.0 9.0 0.00 0.00 0.00 50 1013.7
20260504171952 75 198 11.0 16.0 0.00 0.00 0.00 51 1013.8
20260504171449 75 250 5.0 13.0 0.00 0.00 0.00 53 1013.8
20260504170946 75 185 10.0 12.0 0.00 0.00 0.00 51 1014.1
20260504170442 76 227 3.0 9.0 0.00 0.00 0.00 51 1013.8
20260504160402 72 233 3.0 9.0 0.00 0.00 0.00 58 1014.9
20260504150826 70 216 2.0 7.0 0.00 0.00 0.00 64 1014.9
20260504150322 70 334 3.0 9.0 0.00 0.00 0.00 66 1014.7
20260504141253 66 228 3.0 5.0 0.00 0.00 0.00 72 1014.9
20260504140749 66 180 2.0 15.0 0.00 0.00 0.00 73 1015.1
20260504140245 66 258 3.0 9.0 0.00 0.00 0.00 74 1015.2
20260504130714 59 196 3.0 7.0 0.00 0.00 0.00 86 1014.9
20260504130209 59 174 3.0 7.0 0.00 0.00 0.00 87 1015.1
20260504120133 54 39 0.0 2.0 0.00 0.00 0.00 93 1014.5
20260504110601 53 126 0.0 4.0 0.00 0.00 0.00 95 1014.0
20260504100517 53 66 0.0 2.0 0.00 0.00 0.00 96 1014.5
20260504081910 55 76 0.0 2.0 0.00 0.00 0.00 90 1014.8
20260504081407 56 44 0.0 0.0 0.00 0.00 0.00 90 1014.5
20260504080903 56 89 0.0 1.0 0.00 0.00 0.00 89 1014.6
20260504080400 56 76 0.0 1.0 0.00 0.00 0.00 89 1014.9
20260504070327 57 34 0.0 1.0 0.00 0.00 0.00 86 1015.1
20260504060247 60 85 1.0 2.0 0.00 0.00 0.00 82 1015.6
20260504050715 61 113 0.0 1.0 0.00 0.00 0.00 79 1015.4
20260504050212 61 37 0.0 0.0 0.00 0.00 0.00 79 1015.6
20260504045709 61 37 0.0 1.0 0.00 0.00 0.00 79 1015.6
20260504045204 61 129 0.0 1.0 0.00 0.00 0.00 78 1015.6
20260504044703 61 50 0.0 1.0 0.00 0.00 0.00 78 1015.4
20260504044159 62 294 0.0 2.0 0.00 0.00 0.00 78 1015.6
20260504043656 62 180 0.0 4.0 0.00 0.00 0.00 76 1015.4
20260504043153 61 184 1.0 2.0 0.00 0.00 0.00 78 1015.5
20260504042650 60 55 0.0 1.0 0.00 0.00 0.00 80 1015.4
20260504042147 60 37 0.0 1.0 0.00 0.00 0.00 80 1015.6
20260504041643 60 53 0.0 1.0 0.00 0.00 0.00 80 1015.6
20260504041139 60 114 0.0 2.0 0.00 0.00 0.00 81 1015.7
20260504040636 60 49 0.0 2.0 0.00 0.00 0.00 82 1015.7
20260504040133 60 37 0.0 1.0 0.00 0.00 0.00 82 1015.8
20260504035630 60 48 0.0 1.0 0.00 0.00 0.00 81 1016.0
20260504035126 60 50 0.0 2.0 0.00 0.00 0.00 81 1015.8
20260504034624 61 76 0.0 2.0 0.00 0.00 0.00 81 1015.9
20260504034121 61 66 0.0 1.0 0.00 0.00 0.00 80 1016.0
20260504033619 61 112 2.0 2.0 0.00 0.00 0.00 80 1015.9
20260504033116 61 53 0.0 0.0 0.00 0.00 0.00 79 1016.4
20260504032613 61 103 0.0 2.0 0.00 0.00 0.00 79 1016.1
20260504032110 62 55 0.0 1.0 0.00 0.00 0.00 78 1016.1
20260504031607 62 135 0.0 1.0 0.00 0.00 0.00 77 1015.8
20260504031103 62 59 1.0 2.0 0.00 0.00 0.00 77 1015.9
20260504030600 63 50 1.0 2.0 0.00 0.00 0.00 77 1016.0
20260504030056 63 50 0.0 1.0 0.00 0.00 0.00 76 1015.9
20260504025553 64 69 0.0 2.0 0.00 0.00 0.00 74 1015.8
20260504025050 65 120 1.0 3.0 0.00 0.00 0.00 73 1016.0
20260504024547 65 127 2.0 2.0 0.00 0.00 0.00 73 1015.8
20260504024044 65 141 3.0 3.0 0.00 0.00 0.00 72 1015.8
20260504023540 65 156 2.0 3.0 0.00 0.00 0.00 71 1015.7
20260504023031 66 135 2.0 3.0 0.00 0.00 0.00 71 1015.5
20260504022526 66 136 2.0 3.0 0.00 0.00 0.00 71 1015.5
20260504022023 65 139 2.0 2.0 0.00 0.00 0.00 72 1015.5
20260504021521 65 147 0.0 2.0 0.00 0.00 0.00 71 1015.7
20260504021018 66 118 2.0 2.0 0.00 0.00 0.00 71 1015.6
20260504020515 66 135 0.0 3.0 0.00 0.00 0.00 70 1015.5
20260504020011 66 109 1.0 2.0 0.00 0.00 0.00 69 1015.7
20260504015507 67 122 1.0 2.0 0.00 0.00 0.00 69 1015.5
20260504015003 67 113 0.0 2.0 0.00 0.00 0.00 68 1015.5
20260504014459 68 136 2.0 3.0 0.00 0.00 0.00 66 1015.3
20260504013956 68 151 2.0 3.0 0.00 0.00 0.00 65 1015.3
20260504013455 69 124 0.0 3.0 0.00 0.00 0.00 65 1015.3
20260504012950 69 138 1.0 3.0 0.00 0.00 0.00 63 1015.5
20260504012449 69 182 0.0 3.0 0.00 0.00 0.00 63 1015.3
20260504011947 69 135 0.0 2.0 0.00 0.00 0.00 63 1015.3
20260504011442 70 138 2.0 3.0 0.00 0.00 0.00 61 1015.2
20260504010939 70 195 0.0 0.0 0.00 0.00 0.00 61 1015.5
20260504010435 71 180 0.0 2.0 0.00 0.00 0.00 59 1015.2
20260504005931 71 164 1.0 3.0 0.00 0.00 0.00 58 1015.2
20260504005428 72 153 3.0 4.0 0.00 0.00 0.00 56 1015.4
20260504004925 72 155 3.0 3.0 0.00 0.00 0.00 55 1015.1
20260504004423 73 162 0.0 3.0 0.00 0.00 0.00 55 1015.3